Wind_Speed
11 12 12 13 14 15 16 17 18 19 19 19 20 20 20 20 19 18 18 19 21 23 23 23 22 21 20 19 19 20 20 20 20 20 18 17 17 18 19 18 17 17
6 7 9 10 11 13 14 15 16 17 18 19 19 19 19 19 19 20 19 20 22 23 23 22 21 21 21 20 18 19 21 22 22 21 20 19 19 19 19 20 19 18
4 5 7 8 10 11 12 14 15 17 18 19 19 19 19 19 19 20 20 20 21 22 22 22 22 22 22 21 19 18 21 23 23 22 21 20 20 20 21 21 21 21
5 7 8 9 11 12 13 15 16 17 17 17 17 16 16 16 16 17 18 19 20 21 22 22 23 23 22 22 22 21 22 23 23 23 22 21 20 21 21 21 22 22
9 10 11 12 13 14 15 15 14 14 13 13 13 14 15 15 15 15 15 16 17 19 20 20 21 21 21 21 21 21 21 22 23 24 24 24 22 22 22 23 24 25
11 12 12 13 14 15 15 13 11 10 11 12 13 14 15 15 15 15 15 16 16 17 18 18 18 18 19 19 19 20 20 20 20 20 21 22 23 24 25 26 28 27
12 12 12 13 13 13 13 11 11 11 12 13 14 14 15 15 15 15 16 16 16 17 17 18 18 18 18 18 18 19 19 19 19 19 19 20 20 21 21 23 25 26
12 12 11 11 10 10 10 10 11 12 12 13 13 14 15 15 15 15 16 16 16 16 16 17 18 18 19 19 19 19 19 20 20 20 20 20 20 20 20 20 21 22
10 10 9 9 9 9 9 9 10 11 11 12 12 13 14 14 15 15 16 16 16 16 17 18 18 19 20 21 21 22 22 22 22 22 22 22 22 22 22 22 22 22
9 9 9 9 9 10 10 10 10 11 11 12 12 13 14 14 15 15 16 16 17 18 19 19 20 21 21 22 22 23 24 24 24 24 24 25 25 24 24 24 25 25
10 9 10 10 11 11 11 11 12 12 12 12 13 13 14 14 14 15 16 17 18 19 20 21 22 22 23 23 23 23 24 25 25 25 26 26 26 26 26 25 25 26
11 12 13 13 12 12 12 12 12 12 12 13 14 14 14 15 15 16 17 17 18 19 20 21 22 23 24 24 24 24 24 25 25 25 25 25 25 26 26 26 26 25
11 13 13 14 13 12 12 12 12 13 13 14 15 15 15 16 17 18 18 18 19 20 20 21 22 23 24 25 25 26 26 27 27 26 26 25 24 24 25 26 26 25
11 12 12 13 13 12 12 13 13 13 14 15 15 16 17 18 19 19 19 19 20 20 21 22 23 24 25 27 28 29 29 29 28 28 28 27 25 24 23 24 25 25
10 11 12 12 12 13 14 14 14 15 15 16 17 18 19 19 19 19 19 20 20 21 22 23 23 24 26 28 29 30 30 30 30 29 29 28 27 26 24 23 23 24
10 11 12 12 13 15 15 16 16 16 17 18 19 19 19 19 19 19 20 21 22 22 23 24 25 25 26 27 28 29 30 30 31 31 29 28 28 27 27 25 23 23
13 13 13 14 16 16 17 17 17 17 18 18 19 19 19 19 19 20 21 21 22 22 23 24 25 26 27 27 28 28 29 30 30 31 30 28 27 27 27 27 26 24
15 15 16 17 17 18 18 18 17 18 18 19 19 20 20 19 20 20 20 21 21 22 23 24 25 26 27 28 29 29 30 30 29 29 29 28 27 27 27 27 27 27
17 17 18 18 18 19 18 18 18 19 20 20 20 20 20 20 21 21 20 20 21 22 22 23 24 26 27 29 30 31 31 31 30 29 28 28 27 27 27 27 27 28
18 18 19 19 19 18 18 18 19 20 21 21 21 21 21 21 22 21 21 21 21 21 22 23 24 26 27 29 30 31 32 32 31 30 29 28 27 27 27 27 28 29
19 19 18 18 17 16 17 18 19 20 21 22 23 23 24 24 24 23 23 22 21 21 21 22 24 25 27 29 30 31 31 32 32 32 31 30 29 28 27 27 29 30
18 17 16 16 15 15 16 18 20 21 23 24 24 25 26 26 26 25 24 22 21 20 20 21 23 25 27 29 30 31 32 32 33 33 33 32 31 30 29 28 30 32
17 16 15 14 14 15 17 20 21 23 24 25 26 27 28 28 28 26 24 23 22 21 21 22 23 25 28 30 32 33 34 35 36 36 35 34 33 32 31 31 32 33
16 15 14 14 15 17 20 21 23 24 25 26 27 28 29 29 29 27 25 24 23 23 22 22 23 25 28 31 33 35 36 37 38 38 38 37 36 35 34 33 32 32
15 14 15 16 17 19 20 21 23 24 25 27 27 28 29 30 29 28 27 25 24 24 23 22 23 26 29 31 33 35 37 38 39 39 39 39 39 38 37 35 33 31
16 16 17 17 18 19 20 21 22 23 24 26 27 28 29 30 30 30 28 27 26 25 25 24 25 26 29 31 33 34 36 37 38 39 39 39 38 38 38 37 34 32
Wind_Direction
289 290 292 293 294 294 296 297 300 303 306 309 311 311 311 309 307 304 301 300 301 303 306 308 312 315 312 309 310 310 309 307 306 307 306 303 300 301 305 306 305 300
288 290 292 293 295 296 299 302 306 310 312 314 315 315 315 313 310 307 304 302 302 304 306 307 307 307 308 311 312 311 310 309 309 311 311 309 306 305 307 308 307 304
309 301 300 300 301 303 305 308 311 312 313 314 315 315 314 313 311 310 309 307 307 308 308 308 307 306 305 305 302 299 301 303 305 307 308 307 305 303 301 302 302 303
335 322 316 313 313 313 313 314 313 314 316 319 322 324 324 324 322 318 315 311 308 309 311 312 312 312 310 307 303 298 296 296 296 296 296 297 298 298 298 298 298 299
338 330 326 322 321 321 321 320 321 325 331 334 339 341 341 341 339 334 330 324 319 318 320 321 321 321 321 319 317 314 309 304 298 293 289 287 287 287 290 292 293 294
336 330 327 324 324 326 326 328 336 346 350 349 349 348 346 347 346 343 341 338 336 334 334 333 332 331 331 331 330 328 325 322 316 310 303 295 290 286 284 285 287 288
338 334 334 335 335 337 337 339 346 351 352 350 348 346 346 348 347 346 346 343 342 341 339 338 337 336 335 334 333 331 330 329 327 324 321 316 311 305 298 293 289 287
343 344 348 352 356 358 356 352 348 348 350 347 345 347 348 348 348 348 348 347 346 344 341 340 338 337 335 334 333 332 331 331 329 327 325 323 321 319 316 311 304 298
348 354 0 5 11 12 8 4 359 357 355 350 349 351 350 349 350 349 349 347 346 344 341 339 338 337 336 334 333 331 330 330 330 329 327 326 324 323 321 318 315 311
358 6 9 11 15 16 15 15 13 10 6 2 360 356 353 352 351 349 347 345 343 342 340 338 337 336 336 334 332 330 329 328 327 327 327 326 326 325 323 321 320 317
10 20 22 25 25 24 23 22 19 17 13 11 8 3 359 357 354 352 349 347 345 344 342 339 338 336 334 333 332 330 328 327 326 325 324 324 323 323 323 323 322 319
23 33 37 40 39 35 32 27 23 20 16 15 14 10 7 4 2 360 357 355 352 349 346 344 341 339 337 335 334 332 331 331 329 327 325 324 322 321 320 320 320 320
37 41 46 49 46 41 36 30 24 20 18 17 14 11 9 7 7 6 3 1 357 354 351 349 346 343 341 339 339 339 338 337 335 333 331 328 326 322 318 317 318 320
47 48 49 50 47 42 39 33 28 24 21 20 17 15 14 13 12 11 8 5 2 359 357 354 352 349 348 347 346 344 343 340 339 336 334 333 330 327 323 320 319 320
57 54 51 51 49 47 47 42 38 35 31 29 26 24 22 20 17 14 11 8 7 4 2 0 359 359 359 356 351 348 345 342 340 338 336 336 333 330 327 324 322 322
68 64 62 61 58 56 54 50 47 43 38 35 32 28 25 21 16 13 10 7 5 3 2 1 1 2 2 358 353 350 347 344 342 340 338 337 335 332 329 327 326 324
78 76 74 70 66 63 59 54 50 44 39 35 31 26 22 17 12 9 6 3 1 359 358 358 359 359 357 355 354 352 349 347 344 341 339 338 337 335 332 330 330 328
84 83 79 75 71 65 61 56 50 45 40 35 29 25 19 13 9 7 3 359 357 356 356 356 357 356 355 354 354 353 352 350 347 343 340 339 338 338 337 335 333 332
86 85 81 77 72 67 62 56 50 45 40 35 30 25 18 14 11 7 3 0 358 357 358 358 358 357 357 356 355 355 355 353 351 349 346 343 341 340 339 339 338 336
87 85 82 78 74 68 62 55 49 44 38 34 29 24 21 18 16 12 9 7 6 5 4 3 2 1 360 359 358 357 356 355 355 354 352 350 347 343 342 343 343 342
87 85 82 79 74 67 59 53 47 42 38 35 32 30 28 26 23 19 16 14 12 10 9 8 7 5 4 3 2 0 359 358 358 358 356 355 352 349 347 347 348 347
86 83 81 77 70 63 58 52 47 43 40 39 37 35 32 29 27 24 21 19 17 14 13 13 11 10 11 10 7 5 4 2 2 1 0 359 357 354 353 354 355 353
86 82 78 74 69 64 59 53 48 44 42 41 38 35 33 31 29 28 26 24 22 19 17 16 15 15 16 14 12 11 9 8 7 6 5 4 2 0 358 359 359 355
85 81 77 74 71 67 61 55 50 46 44 43 40 37 36 34 33 32 32 30 27 24 22 20 18 19 18 16 15 14 13 12 10 9 8 6 5 4 2 2 359 355
87 83 79 77 74 69 63 57 52 49 47 44 42 39 38 37 36 35 35 34 32 28 26 24 22 22 20 18 17 17 16 14 12 11 10 9 6 4 3 2 360 356
89 86 82 80 75 69 64 59 54 51 47 45 43 40 39 38 38 37 36 35 33 31 29 26 25 24 23 20 19 19 17 15 13 13 12 10 8 5 3 1 0 357
Height
1536 1536 1536 1536 1536 1536 1535 1535 1534 1534 1533 1533 1532 1532 1532 1531 1531 1531 1531 1530 1529 1528 1528 1527 1526 1526 1525 1525 1524 1524 1523 1522 1522 1521 1521 1520 1519 1518 1517 1516 1515 1514
1536 1536 1536 1536 1536 1535 1535 1534 1534 1533 1533 1532 1532 1531 1531 1531 1530 1530 1529 1528 1527 1526 1526 1525 1524 1524 1523 1523 1523 1522 1521 1520 1520 1519 1519 1518 1517 1516 1516 1515 1514 1513
1536 1536 1536 1536 1535 1535 1535 1534 1534 1533 1532 1532 1531 1531 1530 1530 1529 1528 1527 1526 1525 1524 1523 1523 1522 1522 1521 1520 1520 1520 1519 1518 1517 1517 1516 1516 1515 1514 1513 1513 1512 1511
1537 1536 1536 1536 1535 1535 1535 1534 1533 1533 1532 1531 1530 1530 1529 1528 1528 1527 1526 1525 1524 1523 1522 1521 1520 1519 1519 1518 1517 1517 1516 1516 1515 1514 1514 1513 1513 1512 1511 1510 1509 1508
1537 1536 1536 1536 1535 1535 1534 1533 1533 1532 1531 1531 1530 1529 1528 1528 1527 1526 1525 1524 1523 1522 1521 1520 1519 1518 1516 1516 1515 1514 1514 1513 1512 1511 1510 1510 1510 1509 1508 1507 1506 1505
1537 1537 1536 1536 1535 1534 1534 1533 1532 1532 1531 1531 1530 1529 1528 1527 1526 1525 1524 1523 1522 1521 1520 1519 1517 1516 1515 1514 1513 1512 1512 1511 1510 1509 1508 1507 1507 1506 1505 1504 1503 1502
1537 1536 1536 1536 1535 1534 1533 1533 1532 1532 1531 1531 1530 1529 1528 1527 1526 1525 1524 1523 1522 1521 1520 1518 1517 1515 1514 1514 1513 1512 1511 1510 1509 1507 1506 1505 1504 1503 1502 1500 1499 1498
1537 1536 1536 1536 1535 1535 1534 1534 1533 1532 1532 1531 1530 1529 1528 1527 1526 1525 1524 1523 1522 1521 1519 1518 1516 1515 1514 1513 1512 1511 1510 1509 1507 1506 1505 1503 1502 1500 1499 1498 1496 1495
1537 1537 1537 1537 1536 1536 1535 1535 1534 1533 1532 1531 1530 1529 1527 1527 1525 1525 1524 1523 1522 1521 1519 1518 1516 1514 1513 1512 1510 1509 1508 1507 1506 1504 1503 1501 1500 1498 1496 1495 1493 1492
1538 1538 1538 1537 1536 1536 1535 1535 1534 1534 1533 1531 1530 1529 1528 1527 1526 1525 1524 1523 1522 1520 1519 1517 1516 1514 1513 1511 1510 1508 1507 1505 1504 1503 1501 1500 1498 1496 1494 1492 1490 1489
1539 1539 1538 1537 1537 1536 1536 1535 1534 1534 1533 1532 1531 1529 1528 1527 1526 1525 1524 1522 1521 1520 1518 1517 1515 1513 1512 1511 1509 1507 1506 1504 1503 1501 1500 1498 1496 1494 1492 1490 1488 1486
1540 1539 1538 1538 1537 1537 1536 1536 1535 1534 1533 1532 1531 1530 1529 1528 1526 1525 1524 1522 1521 1520 1518 1517 1515 1513 1511 1510 1508 1506 1505 1503 1501 1499 1498 1496 1495 1493 1491 1488 1486 1484
1540 1540 1539 1539 1538 1538 1537 1536 1535 1535 1534 1533 1532 1531 1529 1528 1526 1525 1524 1522 1521 1520 1518 1517 1515 1513 1511 1509 1507 1505 1503 1501 1499 1497 1496 1494 1493 1491 1489 1486 1484 1482
1541 1541 1540 1540 1539 1539 1538 1537 1537 1536 1535 1534 1533 1531 1529 1528 1527 1525 1524 1523 1521 1520 1518 1517 1515 1513 1510 1508 1506 1504 1502 1500 1498 1496 1494 1492 1490 1489 1487 1484 1482 1480
1542 1542 1541 1541 1541 1540 1539 1539 1538 1537 1536 1535 1533 1532 1530 1529 1528 1526 1525 1523 1522 1520 1519 1517 1515 1513 1510 1508 1506 1504 1502 1499 1497 1495 1492 1490 1488 1486 1485 1482 1480 1478
1543 1543 1542 1542 1542 1541 1541 1540 1539 1538 1537 1536 1534 1533 1532 1530 1529 1527 1525 1523 1522 1520 1519 1517 1515 1513 1512 1510 1507 1505 1502 1499 1496 1494 1492 1489 1487 1484 1482 1480 1478 1476
1544 1544 1544 1544 1543 1543 1542 1542 1541 1540 1539 1537 1536 1534 1533 1531 1530 1528 1526 1524 1522 1521 1519 1517 1515 1514 1512 1510 1508 1505 1502 1499 1496 1493 1491 1488 1486 1483 1480 1478 1475 1473
1546 1545 1546 1545 1545 1544 1544 1544 1543 1541 1540 1538 1537 1535 1533 1532 1530 1528 1526 1525 1523 1521 1519 1518 1516 1514 1512 1510 1508 1505 1502 1500 1497 1494 1490 1487 1484 1482 1479 1476 1473 1470
1547 1547 1547 1546 1546 1546 1546 1545 1544 1542 1541 1539 1538 1536 1534 1533 1531 1529 1527 1525 1523 1522 1520 1518 1517 1515 1512 1510 1507 1505 1502 1499 1497 1494 1490 1487 1484 1481 1478 1475 1471 1468
1549 1549 1548 1548 1548 1548 1548 1547 1545 1543 1542 1540 1539 1537 1535 1533 1531 1529 1528 1526 1524 1522 1521 1519 1517 1515 1512 1510 1507 1505 1502 1499 1496 1493 1490 1487 1483 1480 1477 1474 1470 1467
1550 1550 1550 1550 1550 1550 1549 1548 1546 1545 1543 1541 1540 1538 1536 1534 1532 1530 1528 1526 1525 1523 1521 1520 1517 1515 1513 1510 1508 1505 1502 1499 1496 1493 1489 1486 1483 1480 1476 1473 1470 1466
1552 1552 1551 1552 1552 1551 1550 1549 1547 1546 1544 1542 1541 1539 1537 1535 1533 1531 1529 1527 1526 1524 1522 1520 1518 1515 1513 1510 1508 1505 1502 1498 1495 1491 1488 1485 1482 1478 1475 1472 1469 1466
1553 1553 1553 1553 1553 1552 1551 1550 1549 1547 1545 1544 1542 1540 1538 1536 1534 1532 1530 1528 1526 1524 1522 1520 1518 1516 1513 1510 1507 1504 1500 1497 1494 1490 1487 1484 1481 1478 1474 1471 1469 1466
1554 1554 1554 1555 1554 1554 1552 1551 1550 1548 1547 1545 1544 1541 1540 1538 1535 1533 1531 1529 1527 1525 1523 1521 1519 1516 1514 1511 1507 1504 1500 1497 1493 1490 1487 1483 1480 1477 1474 1471 1469 1466
1555 1556 1556 1556 1556 1555 1554 1553 1551 1550 1548 1547 1545 1543 1541 1539 1537 1535 1533 1531 1528 1526 1524 1522 1519 1517 1514 1511 1508 1504 1501 1498 1494 1490 1487 1483 1480 1476 1473 1471 1468 1465
1557 1557 1557 1557 1556 1556 1555 1554 1552 1551 1550 1548 1547 1545 1543 1541 1539 1536 1534 1532 1530 1527 1525 1523 1520 1518 1515 1512 1509 1506 1502 1499 1495 1491 1487 1484 1481 1477 1473 1470 1467 1464